FW6569 Weather Reports


Display with metric or nautical units.
time (UTC)temp
F
wind
direction
speed
MPH
gust
MPH
rain 1hr
in
rain 24hr
in
rain mn
in
humidity
%
barometer
mb
20260903215522 96 305 1.0 2.0 0.00 0.00 0.00 56 1015.6
20260903214521 96 216 4.0 8.0 0.00 0.00 0.00 53 1015.6
20260903213522 96 212 3.0 6.0 0.00 0.00 0.00 54 1015.6
20260903212522 96 277 3.0 7.0 0.00 0.00 0.00 53 1015.7
20260903211522 96 237 3.0 7.0 0.00 0.00 0.00 54 1015.7
20260903210521 96 221 5.0 9.0 0.00 0.00 0.00 53 1015.8
20260903205541 96 233 3.0 6.0 0.00 0.00 0.00 53 1015.9
20260903204522 97 232 4.0 6.0 0.00 0.00 0.00 52 1016.0
20260903203551 97 216 4.0 5.0 0.00 0.00 0.00 54 1016.1
20260903202522 96 215 4.0 7.0 0.00 0.00 0.00 55 1016.2
20260903201532 97 234 5.0 8.0 0.00 0.00 0.00 53 1016.3
20260903200521 97 252 3.0 4.0 0.00 0.00 0.00 53 1016.4
20260903195521 96 227 4.0 8.0 0.00 0.00 0.00 54 1016.6
20260903194521 96 206 5.0 8.0 0.00 0.00 0.00 53 1016.7
20260903193522 96 276 4.0 6.0 0.00 0.00 0.00 56 1016.9
20260903192542 95 272 3.0 6.0 0.00 0.00 0.00 54 1017.0
20260903191621 94 262 3.0 4.0 0.00 0.00 0.00 59 1017.1
20260903190532 93 252 2.0 4.0 0.00 0.00 0.00 60 1017.2
20260903185522 93 233 3.0 6.0 0.00 0.00 0.00 60 1017.2
20260903184522 95 203 6.0 8.0 0.00 0.00 0.00 59 1017.2
20260903183542 94 242 3.0 6.0 0.00 0.00 0.00 56 1017.2
20260903182652 94 262 5.0 10.0 0.00 0.00 0.00 56 1017.3
20260903181541 94 228 4.0 7.0 0.00 0.00 0.00 56 1017.3
20260903180542 94 226 3.0 4.0 0.00 0.00 0.00 56 1017.4
20260903175712 93 217 5.0 10.0 0.00 0.00 0.00 59 1017.5
20260903174532 92 213 5.0 11.0 0.00 0.00 0.00 60 1017.6
20260903173542 93 195 5.0 6.0 0.00 0.00 0.00 60 1017.7
20260903172522 93 183 5.0 6.0 0.00 0.00 0.00 59 1017.8
20260903171602 93 218 5.0 8.0 0.00 0.00 0.00 61 1017.9
20260903170633 92 193 6.0 8.0 0.00 0.00 0.00 62 1018.1
20260903165542 92 183 5.0 6.0 0.00 0.01 0.00 62 1018.1
20260903164522 92 208 5.0 6.0 0.00 0.01 0.00 63 1018.2
20260903163542 91 223 4.0 9.0 0.00 0.01 0.00 65 1018.3
20260903162652 91 212 5.0 7.0 0.00 0.01 0.00 63 1018.4
20260903161602 89 204 6.0 8.0 0.00 0.01 0.00 66 1018.4
20260903160522 91 205 4.0 5.0 0.00 0.01 0.00 64 1018.5
20260903155702 90 228 5.0 10.0 0.00 0.01 0.00 65 1018.5
20260903154603 90 215 5.0 8.0 0.00 0.01 0.00 68 1018.4
20260903153532 89 216 4.0 6.0 0.00 0.01 0.00 66 1018.5
20260903152542 90 235 6.0 7.0 0.00 0.00 0.00 64 1018.4
20260903151532 90 214 4.0 6.0 0.00 0.00 0.00 66 1018.4
20260903150532 89 236 4.0 7.0 0.00 0.00 0.00 68 1018.4
20260903145552 88 204 4.0 6.0 0.00 0.00 0.00 71 1018.4
20260903144552 87 265 4.0 6.0 0.00 0.00 0.00 70 1018.4
20260903143523 87 199 3.0 5.0 0.00 0.00 0.00 73 1018.4
20260903142532 86 215 4.0 6.0 0.00 0.00 0.00 74 1018.3
20260903141542 86 210 4.0 6.0 0.00 0.00 0.00 74 1018.3
20260903140523 85 223 4.0 6.0 0.00 0.00 0.00 75 1018.4
20260903135542 84 216 4.0 6.0 0.00 0.00 0.00 76 1018.5
20260903134522 84 207 4.0 5.0 0.00 0.00 0.00 77 1018.6
20260903133522 84 203 4.0 5.0 0.00 0.00 0.00 78 1018.7
20260903132522 83 188 3.0 4.0 0.00 0.00 0.00 80 1018.7
20260903131522 82 217 2.0 3.0 0.00 0.00 0.00 81 1018.8
20260903130542 81 225 3.0 3.0 0.00 0.00 0.00 80 1018.8
20260903125522 81 215 1.0 3.0 0.00 0.00 0.00 83 1019.0
20260903124522 79 105 0.0 1.0 0.00 0.00 0.00 89 1019.0
20260903123542 76 0.0 1.0 0.00 0.00 0.00 93 1018.9
20260903122523 75 0.0 0.0 0.00 0.00 0.00 96 1018.9
20260903121543 75 0.0 0.0 0.00 0.00 0.00 99 1018.8
20260903120522 73 0.0 0.0 0.00 0.00 0.00 99 1018.7
20260903115533 72 0.0 0.0 0.00 0.00 0.00 99 1018.7
20260903114523 71 0.0 0.0 0.00 0.00 0.00 99 1018.6
20260903113543 70 0.0 0.0 0.00 0.00 0.00 99 1018.5
20260903112523 71 0.0 0.0 0.00 0.00 0.00 99 1018.4
20260903111522 71 0.0 0.0 0.00 0.00 0.00 99 1018.3
20260903110522 71 0.0 0.0 0.00 0.00 0.00 99 1018.2
20260903105523 70 0.0 0.0 0.00 0.00 0.00 99 1018.2
20260903104602 70 0.0 0.0 0.00 0.00 0.00 99 1018.1
20260903103523 70 0.0 0.0 0.00 0.00 0.00 99 1018.0
20260903102523 70 0.0 0.0 0.00 0.00 0.00 99 1018.0
20260903101522 71 0.0 0.0 0.00 0.00 0.00 99 1018.1
20260903100523 71 0.0 0.0 0.00 0.00 0.00 99 1018.1
20260903095522 71 0.0 0.0 0.00 0.00 0.00 98 1018.0
20260903094523 71 0.0 0.0 0.00 0.00 0.00 99 1018.0
20260903093523 71 0.0 0.0 0.00 0.00 0.00 98 1018.0
20260903092523 71 0.0 0.0 0.00 0.00 0.00 98 1018.1
20260903091523 71 0.0 0.0 0.00 0.00 0.00 98 1018.0
20260903090523 71 0.0 0.0 0.00 0.00 0.00 98 1018.0
20260903085523 71 0.0 0.0 0.00 0.00 0.00 98 1018.0
20260903084523 71 0.0 0.0 0.00 0.00 0.00 98 1017.9
20260903083523 71 0.0 0.0 0.00 0.00 0.00 98 1017.9
20260903082523 71 0.0 0.0 0.00 0.00 0.00 98 1017.8
20260903081543 72 0.0 0.0 0.00 0.00 0.00 98 1017.9
20260903080523 72 0.0 0.0 0.00 0.00 0.00 98 1017.9
20260903075523 72 0.0 0.0 0.00 0.00 0.00 98 1017.8
20260903074544 72 0.0 0.0 0.00 0.00 0.00 98 1017.8
20260903073523 72 0.0 0.0 0.00 0.00 0.00 98 1017.7
20260903072523 72 0.0 0.0 0.00 0.00 0.00 98 1017.7
20260903071523 72 0.0 0.0 0.00 0.00 0.00 97 1017.7
20260903070523 72 0.0 0.0 0.00 0.00 0.00 97 1017.7
20260903065544 72 0.0 0.0 0.00 0.00 0.00 97 1017.7
20260903064524 73 0.0 0.0 0.00 0.00 0.00 97 1017.6
20260903063544 73 0.0 0.0 0.00 0.00 0.00 97 1017.7
20260903062523 73 0.0 0.0 0.00 0.00 0.00 97 1017.8
20260903061523 73 0.0 0.0 0.00 0.00 0.00 97 1017.7
20260903060544 73 0.0 0.0 0.00 0.00 0.00 97 1017.7
20260903055524 74 0.0 0.0 0.00 0.00 0.00 97 1017.6
20260903054523 74 0.0 0.0 0.00 0.00 0.00 98 1017.6
20260903053534 74 0.0 0.0 0.00 0.00 0.00 97 1017.6
20260903052544 74 0.0 0.0 0.00 0.00 0.00 97 1017.5
20260903051523 73 0.0 0.0 0.00 0.00 0.00 97 1017.4
20260903050523 74 0.0 0.0 0.00 0.00 0.00 97 1017.4
20260903045524 74 0.0 0.0 0.00 0.00 0.00 97 1017.4
20260903044523 74 0.0 0.0 0.00 0.00 0.00 97 1017.3
20260903043524 74 0.0 0.0 0.00 0.00 0.00 97 1017.3
20260903042523 74 0.0 0.0 0.00 0.00 0.00 97 1017.4
20260903041524 74 0.0 0.0 0.00 0.00 0.00 97 1017.4
20260903040524 75 0.0 0.0 0.00 0.00 0.00 97 1017.4
20260903035523 75 0.0 0.0 0.00 0.00 0.00 96 1017.4
20260903034534 75 0.0 0.0 0.00 0.00 0.00 96 1017.4
20260903033524 75 0.0 0.0 0.00 0.00 0.00 96 1017.5
20260903032534 75 0.0 0.0 0.00 0.00 0.00 96 1017.5
20260903031524 75 0.0 0.0 0.00 0.00 0.00 96 1017.5
20260903030524 75 0.0 0.0 0.00 0.00 0.00 96 1017.5
20260903025524 76 0.0 0.0 0.00 0.00 0.00 95 1017.5
20260903024524 76 0.0 0.0 0.00 0.00 0.00 95 1017.6
20260903023523 76 0.0 0.0 0.00 0.00 0.00 95 1017.6
20260903022523 76 0.0 0.0 0.00 0.00 0.00 94 1017.7
20260903021524 77 0.0 0.0 0.00 0.00 0.00 94 1017.7
20260903020544 77 0.0 0.0 0.00 0.00 0.00 94 1017.6
20260903015524 77 0.0 0.0 0.00 0.00 0.00 93 1017.6
20260903014524 77 0.0 0.0 0.00 0.00 0.00 93 1017.6
20260903013524 78 0.0 0.0 0.00 0.00 0.00 92 1017.5
20260903012534 78 0.0 0.0 0.00 0.00 0.00 91 1017.4
20260903011555 78 108 0.0 1.0 0.00 0.00 0.00 92 1017.4
20260903010524 79 0.0 0.0 0.00 0.00 0.00 90 1017.2
20260903005535 79 0.0 0.0 0.00 0.00 0.00 90 1017.2
20260903004555 80 0.0 0.0 0.00 0.00 0.00 91 1017.1
20260903003615 81 0.0 0.0 0.00 0.00 0.00 88 1017.0
20260903002555 82 353 0.0 1.0 0.00 0.00 0.00 84 1017.0
20260903001514 83 0.0 0.0 0.00 0.00 0.00 81 1017.0
20260903000534 84 0.0 1.0 0.00 0.00 0.00 80 1017.0
20260902235554 85 0.0 0.0 0.00 0.00 0.00 77 1017.0
20260902234524 86 250 1.0 2.0 0.00 0.00 0.00 75 1017.0
20260902233525 87 222 2.0 3.0 0.00 0.00 0.00 73 1017.0
20260902232524 89 215 3.0 3.0 0.00 0.00 0.00 71 1017.0
20260902231545 92 215 2.0 3.0 0.00 0.00 0.00 68 1017.1
20260902230524 93 0.0 0.0 0.00 0.00 0.00 66 1017.1
20260902225524 93 0.0 0.0 0.00 0.00 0.00 65 1017.1
20260902224524 93 0.0 0.0 0.00 0.00 0.00 66 1017.2
20260902223524 92 0.0 0.0 0.00 0.00 0.00 66 1017.2
20260902222525 92 250 0.0 2.0 0.00 0.00 0.00 66 1017.2
20260902221525 93 204 3.0 4.0 0.00 0.00 0.00 61 1017.3
20260902220524 94 209 4.0 6.0 0.00 0.00 0.00 58 1017.4